Location: Frysztak
(49.8373°N, 21.6089°E)
Time: 22:53:44
(UTC+02:00)

ISS - Pass Details

Date: 25 September 2018
Orbit: 403 x 408 km, 51.6° (Epoch: 17 October)

Event Time Altitude Azimuth Distance (km) Brightness Sun altitude
Rises 21:00:26 0° 260° (W) 2,336 0.7 -24.7°
Reaches altitude 10° 21:02:31 10° 262° (W) 1,476 -0.4 -25.0°
Enters shadow 21:04:04 25° 266° (W) 869 -1.7 -25.2°
